Regional Weather Roundup
Issued by NWS

Home | Current Version | Previous Version | Graphics & Text | Print | Product List | Glossary On
Versions: 1 2 3 4 5 6 7 8 9 10 11 12 13 14 15 16 17 18 19 20 21 22 23 24 25 26 27 28 29 30 31 32 33 34 35 36 37 38 39 40 41 42 43 44 45 46 47 48 49 50
000
ASUS45 KCYS 032110
RWRWY

WYOMING REGIONAL WEATHER ROUNDUP
NATIONAL WEATHER SERVICE CHEYENNE WY
300 PM MDT MON AUG 03 2015

NOTE:  "FAIR" INDICATES FEW OR NO CLOUDS BELOW 12,000 FEET
WITH NO SIGNIFICANT WEATHER AND/OR OBSTRUCTIONS TO VISIBILITY.

WYZ001-032200-
YELLOWSTONE NATIONAL PARK

CITY           SKY/WX    TMP DP  RH WIND       PRES   REMARKS
LK YELLOWSTONE   N/A     73  37  27 CALM      30.23S
W YELLOWSTONE  NOT AVBL

$$
WYZ002>013-054>058-071-098>099-032200-
NORTHERN WYOMING

CITY           SKY/WX    TMP DP  RH WIND       PRES   REMARKS
JACKSON        PTSUNNY   73  41  31 S6        30.13F
CODY           FAIR      81  50  34 N9        30.01F
GREYBULL       FAIR      88  44  21 CALM      29.92F
WORLAND        FAIR      89  44  20 SW5       29.94F
SHERIDAN       FAIR      87  52  29 SE9       29.95F
BUFFALO        FAIR      83  52  34 SE13      30.04F
GILLETTE       FAIR      84  52  33 VRB7      30.00F
HULETT         FAIR      82  45  26 E8        30.03S
NEWCASTLE      FAIR      81  52  36 S12       30.02S

$$
WYZ014>020-022>026-101>103-032200-
CENTRAL WYOMING

CITY           SKY/WX    TMP DP  RH WIND       PRES   REMARKS
BIG PINEY      CLOUDY    71  43  36 SE9       30.15F
PINEDALE       LGT RAIN  68  46  45 N8        30.18F
DUBOIS         FAIR      73  37  27 SE16G23   30.16S
LANDER         CLOUDY    75  45  34 CALM      30.06F
RIVERTON       FAIR      80  43  26 SW12      30.07F
CASPER         FAIR      82  47  29 NW5       30.02F THUNDER
DOUGLAS        FAIR      88  46  23 VRB3      30.02F

$$
WYZ021-027>030-104>119-032200-
SOUTHERN WYOMING

CITY           SKY/WX    TMP DP  RH WIND       PRES   REMARKS
EVANSTON       RAIN      54  52  93 W15       30.20R FOG
KEMMERER       LGT RAIN N/A N/A N/A W6        30.18S
FORT BRIDGER   CLOUDY    61  61 100 NW8       30.18F THUNDER
ROCK SPRINGS   PTSUNNY   70  50  49 S15G26    30.12F
DIXON          MOCLDY    78  43  29 SW9       30.16F
RAWLINS        TSTM      72  44  36 E6        30.18F
SARATOGA       RAIN      68  50  52 NE8       30.19F
LARAMIE        FAIR      80  37  21 SE23G29   30.17F
CHEYENNE       FAIR      80  44  27 S21G30    30.14R
TORRINGTON     FAIR      84  58  40 W5        29.99F
PINE BLUFFS    FAIR      88  37  16 S21G26    30.07F

$$



USA.gov is the U.S. government's official web portal to all federal, state and local government web resources and services.